Tracking 19283 objects as of 17-Nov-2018
HD Live streaming from Space Station
objects crossing your sky now

INTELSAT 904

Track INTELSAT 904 now!
INTELSAT 904 is classified as:


NORAD ID: 27380
Int'l Code: 2002-007A
Perigee: 35,785.5 km
Apogee: 35,801.6 km
Inclination: 0.1 °
Period: 1,436.1 minutes
Semi major axis: 42164 km
RCS: 11.3214 m2 (large)
Launch date: February 23, 2002
Source: International Telecommunications Satellite Organization (ITSO)
Launch site: FRENCH GUIANA (FRGUI)

76 C-band, 22 Ku-band, broadcasting, business services, direct-to-home TV broadcasting, telecommunications, VSAT networks; Indian Ocean region.
aabbcc
Your satellite tracking list
Your tracking list is empty




NASA's NSSDC Master Catalog

Two Line Element Set (TLE):
1 27380U 02007A   18320.71987376 +.00000141 +00000-0 +00000-0 0  9997
2 27380 000.1230 102.8907 0001913 089.3035 167.8321 01.00272468023998
Source of the keplerian elements: AFSPC